This demonstration page uses our WeatherBlox Daily Observations layout. Learn more.

Left ArrowRight Arrow

Hourly Observations for March 27, 2018

Temp ( °F °C ) Dew Point ( °F °C ) Humidity (%) Winds ( mph kmh ) Pressure ( in mb ) Visibility ( mi km ) Precip ( " mm )
12:10 am 00:10 Clear with Mist and Fog 34 1.1 34 1.1 100 100 NW 5 7 30.15 1021 3 4 0.00 0.00
12:20 am 00:20 Clear with Mist and Fog 36 2 34 1 93 93 NNW 6 9 30.12 1020 3 5 0.00 0.00
12:53 am 00:53 Partly Cloudy with Mist and Fog 35 1.7 35 1.7 100 100 NW 5 7 30.09 1019 3 5 0.00 0.00
1:36 am 01:36 Partly Cloudy with Mist and Fog 34 1.1 33 0.6 97 97 NNW 7 11 30.15 1021 3 4 0.00 0.00
1:53 am 01:53 Mostly Cloudy with Mist and Fog 34 1.1 34 1.1 100 100 NNW 5 7 30.11 1020 3 4 0.00 0.00
2:05 am 02:05 Cloudy with Mist and Fog 36 2.2 35 1.7 97 97 NW 6 9 30.18 1022 3 5 0.00 0.00
2:25 am 02:25 Mostly Cloudy with Mist and Fog 34 1.1 34 1.1 100 100 NW 5 7 30.18 1022 3 5 0.00 0.00
2:53 am 02:53 Mostly Cloudy with Mist and Fog 33 0.6 33 0.6 100 100 WNW 6 9 30.12 1020 3 5 0.00 0.00
3:35 am 03:35 Cloudy 37 2.8 36 2.2 96 96 NNW 9 15 30.18 1022 10 16 0.00 0.00
3:53 am 03:53 Cloudy 37 2.8 35 1.7 93 93 N 8 13 30.13 1020 10 16 0.00 0.00
4:19 am 04:19 Cloudy 37 2.8 35 1.7 93 93 N 7 11 30.18 1022 10 16 0.00 0.00
4:39 am 04:39 Partly Cloudy 35 1.7 33 0.6 93 93 N 6 9 30.18 1022 10 16 0.00 0.00
4:53 am 04:53 Clear 34 1.1 33 0.6 97 97 N 6 9 30.14 1021 10 16 0.00 0.00
5:28 am 05:28 Mostly Cloudy 34 1 32 0 93 93 NW 5 7 30.18 1022 10 16 0.00 0.00
5:53 am 05:53 Cloudy 34 1.1 34 1.1 100 100 NW 6 9 30.17 1022 10 16 0.00 0.00
6:34 am 06:34 Mostly Clear 34 1 34 1 100 100 NW 12 19 30.18 1022 10 16 0.00 0.00
6:53 am 06:53 Partly Cloudy 34 1.1 33 0.6 97 97 NNW 10 17 30.16 1021 10 16 0.00 0.00
7:53 am 07:53 Sunny 34 1.1 32 0 92 92 NNW 12 19 30.17 1022 10 16 0.00 0.00
8:53 am 08:53 Sunny 36 2.2 33 0.6 89 89 N 12 19 30.21 1023 10 16 0.00 0.00
9:53 am 09:53 Sunny 39 3.9 33 0.6 79 79 N 17 28 30.20 1023 10 16 0.00 0.00
10:53 am 10:53 Sunny 42 5.6 34 1.1 73 73 N 16 26 30.21 1023 10 16 0.00 0.00
11:53 am 11:53 Sunny 46 7.8 33 0.6 61 61 N 13 20 30.21 1023 10 16 0.00 0.00
12:53 pm 12:53 Sunny 47 8.3 32 0 56 56 N 10 17 30.20 1023 10 16 0.00 0.00
1:53 pm 13:53 Sunny 48 8.9 32 0 54 54 NNW 6 9 30.18 1022 10 16 0.00 0.00
2:53 pm 14:53 Sunny 49 9.4 33 0.6 55 55 Calm 30.15 1021 10 16 0.00 0.00
3:53 pm 15:53 Sunny 50 10 33 0.6 52 52 SSW 5 7 30.13 1020 10 16 0.00 0.00
4:53 pm 16:53 Sunny 53 11.7 32 0 45 45 VRB 5 7 30.11 1020 10 16 0.00 0.00
5:53 pm 17:53 Sunny 52 11.1 32 0 47 47 VRB 3 6 30.09 1019 10 16 0.00 0.00
6:53 pm 18:53 Sunny 51 10.6 32 0 48 48 S 5 7 30.09 1019 10 16 0.00 0.00
7:53 pm 19:53 Sunny 49 9.4 31 -0.6 50 50 SSE 5 7 30.08 1019 10 16 0.00 0.00
8:53 pm 20:53 Clear 46 7.8 32 0 58 58 SSE 5 7 30.07 1018 10 16 0.00 0.00
9:53 pm 21:53 Clear 44 6.7 32 0 63 63 SSE 8 13 30.08 1019 10 16 0.00 0.00
10:53 pm 22:53 Clear 41 5 32 0 70 70 S 9 15 30.07 1018 10 16 0.00 0.00
11:53 pm 23:53 Clear 38 3.3 31 -0.6 76 76 S 6 9 30.05 1018 10 16 0.00 0.00

Powered by AerisWeather